FW5336 Weather Reports


Display with metric or nautical units.
time (UTC)temp
F
wind
direction
speed
MPH
gust
MPH
rain 1hr
in
rain 24hr
in
rain mn
in
humidity
%
barometer
mb
20260505011208 62 247 0.0 2.0 0.00 0.09 0.09 81
20260505010703 62 269 0.0 1.0 0.00 0.09 0.09 83
20260505010200 62 238 0.0 0.0 0.00 0.09 0.09 84
20260505005656 62 233 0.0 1.0 0.00 0.09 0.09 84
20260505005153 62 238 1.0 2.0 0.00 0.09 0.09 83
20260505004650 62 265 4.0 7.0 0.00 0.09 0.09 83
20260505004147 61 288 0.0 7.0 0.00 0.09 0.09 87
20260505003644 61 226 0.0 7.0 0.00 0.09 0.09 89
20260505003142 61 271 0.0 1.0 0.00 0.09 0.09 89
20260505002638 61 269 1.0 1.0 0.00 0.09 0.09 89
20260505002136 61 225 0.0 2.0 0.00 0.09 0.09 88
20260505001633 61 227 0.0 1.0 0.12 0.09 0.09 88
20260505001130 62 239 1.0 2.0 0.42 0.08 0.08 86
20260505000627 64 174 3.0 5.0 0.35 0.07 0.07 80
20260505000125 65 270 3.0 6.0 0.00 0.01 0.01 74
20260504235621 66 233 1.0 2.0 0.00 0.01 0.01 71
20260504235118 66 214 1.0 2.0 0.00 0.01 0.01 70
20260504234615 67 252 3.0 7.0 0.00 0.01 0.01 68
20260504234112 66 300 3.0 11.0 0.00 0.01 0.01 67
20260504233608 68 281 3.0 6.0 0.07 0.01 0.01 67
20260504233104 70 337 5.0 11.0 0.07 0.01 0.01 65
20260504232602 74 234 4.0 5.0 0.00 0.00 0.00 53
20260504232059 74 247 1.0 3.0 0.00 0.00 0.00 49
20260504231555 74 252 1.0 3.0 0.00 0.00 0.00 48
20260504231051 74 243 2.0 5.0 0.00 0.00 0.00 48
20260504230547 75 228 3.0 5.0 0.00 0.00 0.00 48
20260504230047 75 255 1.0 5.0 0.00 0.00 0.00 48
20260504225543 76 244 1.0 7.0 0.00 0.00 0.00 47
20260504225041 76 253 1.0 6.0 0.00 0.00 0.00 46
20260504224537 77 176 2.0 6.0 0.00 0.00 0.00 46
20260504224034 77 292 2.0 5.0 0.00 0.00 0.00 46
20260504223531 77 259 1.0 2.0 0.00 0.00 0.00 46
20260504223027 77 210 1.0 3.0 0.00 0.00 0.00 46
20260504222524 76 302 3.0 7.0 0.00 0.00 0.00 47
20260504222021 77 188 2.0 3.0 0.00 0.00 0.00 47
20260504221518 77 251 1.0 3.0 0.00 0.00 0.00 47
20260504221015 76 216 0.0 5.0 0.00 0.00 0.00 47
20260504220512 77 358 4.0 8.0 0.00 0.00 0.00 45
20260504220009 77 242 3.0 8.0 0.00 0.00 0.00 46
20260504215505 77 236 2.0 5.0 0.00 0.00 0.00 45
20260504215003 77 238 5.0 9.0 0.00 0.00 0.00 45
20260504214458 76 277 3.0 6.0 0.00 0.00 0.00 45
20260504213955 78 137 1.0 8.0 0.00 0.00 0.00 43
20260504213451 78 273 4.0 6.0 0.00 0.00 0.00 41
20260504212949 78 252 2.0 5.0 0.00 0.00 0.00 42
20260504212444 77 205 2.0 5.0 0.00 0.00 0.00 43
20260504211942 76 233 2.0 7.0 0.00 0.00 0.00 43
20260504211438 77 248 1.0 9.0 0.00 0.00 0.00 41
20260504210936 76 244 1.0 5.0 0.00 0.00 0.00 41
20260504210433 77 233 3.0 10.0 0.00 0.00 0.00 40
20260504205930 77 176 5.0 11.0 0.00 0.00 0.00 39
20260504205427 77 248 2.0 11.0 0.00 0.00 0.00 40
20260504204925 78 211 0.0 6.0 0.00 0.00 0.00 38
20260504204423 77 273 2.0 11.0 0.00 0.00 0.00 38
20260504203922 77 15 1.0 10.0 0.00 0.00 0.00 38
20260504203420 77 183 4.0 10.0 0.00 0.00 0.00 36
20260504202915 77 309 2.0 8.0 0.00 0.00 0.00 36
20260504202412 79 234 4.0 13.0 0.00 0.00 0.00 34
20260504201909 78 223 1.0 8.0 0.00 0.00 0.00 35
20260504201406 78 212 1.0 9.0 0.00 0.00 0.00 35
20260504200903 79 272 1.0 9.0 0.00 0.00 0.00 35
20260504200400 78 270 4.0 9.0 0.00 0.00 0.00 34
20260504195857 78 239 4.0 7.0 0.00 0.00 0.00 34
20260504195352 80 213 5.0 10.0 0.00 0.00 0.00 32
20260504194849 80 262 0.0 8.0 0.00 0.00 0.00 34
20260504194345 79 207 3.0 3.0 0.00 0.00 0.00 33
20260504193841 78 53 3.0 7.0 0.00 0.00 0.00 32
20260504193339 78 170 4.0 8.0 0.00 0.00 0.00 32
20260504192838 78 242 1.0 8.0 0.00 0.00 0.00 31
20260504192335 79 276 3.0 14.0 0.00 0.00 0.00 31
20260504191833 79 221 3.0 8.0 0.00 0.00 0.00 31
20260504191330 79 261 1.0 6.0 0.00 0.00 0.00 30
20260504190826 78 259 1.0 5.0 0.00 0.00 0.00 33
20260504190322 78 307 4.0 6.0 0.00 0.00 0.00 32
20260504185819 78 331 5.0 10.0 0.00 0.00 0.00 31
20260504185316 78 250 4.0 8.0 0.00 0.00 0.00 30
20260504184812 79 225 2.0 6.0 0.00 0.00 0.00 29
20260504184308 78 246 3.0 7.0 0.00 0.00 0.00 31
20260504183803 78 11 8.0 11.0 0.00 0.00 0.00 30
20260504183301 77 268 1.0 6.0 0.00 0.00 0.00 31
20260504182759 78 314 4.0 7.0 0.00 0.00 0.00 29
20260504182256 78 215 4.0 9.0 0.00 0.00 0.00 31
20260504181753 78 148 3.0 8.0 0.00 0.00 0.00 31
20260504181250 77 233 2.0 5.0 0.00 0.00 0.00 31
20260504180750 77 181 4.0 10.0 0.00 0.00 0.00 33
20260504180248 77 215 3.0 7.0 0.00 0.00 0.00 33
20260504175745 77 307 2.0 11.0 0.00 0.00 0.00 34
20260504175242 77 177 3.0 5.0 0.00 0.00 0.00 34
20260504174739 77 213 2.0 5.0 0.00 0.00 0.00 34
20260504174237 76 283 5.0 8.0 0.00 0.00 0.00 36
20260504173733 76 267 2.0 11.0 0.00 0.00 0.00 37
20260504173231 77 337 5.0 8.0 0.00 0.00 0.00 36
20260504172727 77 266 4.0 10.0 0.00 0.00 0.00 35
20260504172224 77 252 3.0 6.0 0.00 0.00 0.00 37
20260504171720 76 305 3.0 7.0 0.00 0.00 0.00 39
20260504171217 76 175 3.0 7.0 0.00 0.00 0.00 40
20260504170714 76 257 1.0 3.0 0.00 0.00 0.00 42
20260504170212 77 262 2.0 2.0 0.00 0.00 0.00 41
20260504160130 73 301 4.0 6.0 0.00 0.00 0.00 43
20260504151057 69 316 2.0 5.0 0.00 0.00 0.00 49
20260504150555 69 257 1.0 3.0 0.00 0.00 0.00 50
20260504141020 64 272 2.0 6.0 0.00 0.00 0.00 55
20260504140517 63 207 3.0 6.0 0.00 0.00 0.00 57
20260504130441 59 236 0.0 6.0 0.00 0.00 0.00 61
20260504110328 51 312 2.0 5.0 0.00 0.00 0.00 72
20260504100246 51 240 1.0 3.0 0.00 0.00 0.00 71
20260504081639 51 241 1.0 2.0 0.00 0.00 0.00 67
20260504081135 51 249 1.0 2.0 0.00 0.00 0.00 67
20260504080632 51 332 2.0 3.0 0.00 0.00 0.00 67
20260504080128 51 213 2.0 3.0 0.00 0.00 0.00 67
20260504050445 52 231 1.0 1.0 0.00 0.00 0.00 64
20260504045942 52 265 2.0 3.0 0.00 0.00 0.00 64
20260504045437 52 249 0.0 1.0 0.00 0.00 0.00 64
20260504044934 52 189 3.0 5.0 0.00 0.00 0.00 64
20260504044431 52 201 1.0 3.0 0.00 0.00 0.00 63
20260504043929 52 209 2.0 3.0 0.00 0.00 0.00 63
20260504043426 52 346 0.0 2.0 0.00 0.00 0.00 63
20260504042923 53 292 1.0 2.0 0.00 0.00 0.00 63
20260504042419 53 87 0.0 3.0 0.00 0.00 0.00 62
20260504041916 53 71 1.0 3.0 0.00 0.00 0.00 63
20260504041412 53 239 0.0 3.0 0.00 0.00 0.00 63
20260504040908 53 214 2.0 3.0 0.00 0.00 0.00 62
20260504040406 53 200 0.0 3.0 0.00 0.00 0.00 62
20260504035902 53 176 1.0 2.0 0.00 0.00 0.00 62
20260504035359 53 147 1.0 3.0 0.00 0.00 0.00 62
20260504034855 53 275 1.0 3.0 0.00 0.00 0.00 61
20260504034353 53 246 1.0 2.0 0.00 0.00 0.00 62
20260504033850 53 300 2.0 2.0 0.00 0.00 0.00 62
20260504033348 53 258 1.0 2.0 0.00 0.00 0.00 63
20260504032845 53 217 2.0 2.0 0.00 0.00 0.00 63
20260504032342 52 91 2.0 3.0 0.00 0.00 0.00 64
20260504031838 52 260 1.0 2.0 0.00 0.00 0.00 65
20260504031336 52 188 1.0 3.0 0.00 0.00 0.00 65
20260504030832 52 157 2.0 3.0 0.00 0.00 0.00 65
20260504030330 52 214 0.0 2.0 0.00 0.00 0.00 65
20260504025826 52 242 0.0 1.0 0.00 0.00 0.00 65
20260504025323 52 201 2.0 3.0 0.00 0.00 0.00 65
20260504024819 52 226 1.0 1.0 0.00 0.00 0.00 66
20260504024316 52 210 0.0 2.0 0.00 0.00 0.00 66
20260504023812 52 242 0.0 1.0 0.00 0.00 0.00 65
20260504023309 52 230 0.0 2.0 0.00 0.00 0.00 65
20260504022805 52 343 1.0 3.0 0.00 0.00 0.00 65
20260504022304 52 120 2.0 2.0 0.00 0.00 0.00 65
20260504021758 53 262 0.0 1.0 0.00 0.00 0.00 64
20260504021256 53 216 1.0 3.0 0.00 0.00 0.00 64
20260504020753 53 232 1.0 3.0 0.00 0.00 0.00 64
20260504020249 53 316 0.0 1.0 0.00 0.00 0.00 64
20260504015745 53 220 0.0 1.0 0.00 0.00 0.00 63
20260504015242 53 238 0.0 1.0 0.00 0.00 0.00 63
20260504014738 53 307 1.0 1.0 0.00 0.00 0.00 63
20260504014234 53 226 1.0 2.0 0.00 0.00 0.00 63
20260504013732 54 263 1.0 2.0 0.00 0.00 0.00 62
20260504013230 54 194 1.0 2.0 0.00 0.00 0.00 61
20260504012726 54 188 1.0 5.0 0.00 0.00 0.00 60
20260504012224 55 219 1.0 2.0 0.00 0.00 0.00 60
20260504011720 55 220 1.0 2.0 0.00 0.00 0.00 60